[Iaude] MPEC T83: 2023 TM2 [a=1.28,e=0.22,i=8.6,H=26.1]
    mpec at marsden.cfa.harvard.edu 
    mpec at marsden.cfa.harvard.edu
       
    Sat Oct  7 07:28:36 EDT 2023
    
    
  
M.P.E.C. 2023-T83                               Issued 2023 October 7, 11:27 UT
     The Minor Planet Electronic Circulars contain information on unusual
         minor planets, routine data on comets and natural satellites,
         and occasional editorial announcements.  They are published
    on behalf of Division F of the International Astronomical Union by the
          Minor Planet Center, Smithsonian Astrophysical Observatory,
                          Cambridge, MA 02138, U.S.A.
			  
             Prepared using the Tamkin Foundation Computer Network
                              MPC at CFA.HARVARD.EDU
            URL https://www.minorplanetcenter.net/    ISSN 1523-6714
                                    2023 TM2                                    
Observations:
     K23T02M  C2023 10 06.34884000 51 32.823+17 45 53.41         20.24wXET083F52
     K23T02M*1C2023 10 06.36321400 51 30.006+17 42 31.32         19.74GVET083G96
     K23T02M 1C2023 10 06.36901300 51 32.512+17 41 22.60         20.25GVET083G96
     K23T02M  C2023 10 06.37369800 51 43.350+17 41 05.71         20.25wXET083F52
     K23T02M 1C2023 10 06.37481500 51 35.017+17 40 13.58         20.06GVET083G96
     K23T02M mC2023 10 06.41246200 51 51.379+17 32 47.40         21.02GVET083I52
     K23T02M 1C2023 10 06.41252000 51 51.397+17 32 47.08         20.30GVET083G96
     K23T02M 1C2023 10 06.41268500 51 51.476+17 32 44.63         19.96GVET083G96
     K23T02M 1C2023 10 06.41284500 51 51.559+17 32 42.90         19.56GVET083G96
     K23T02M mC2023 10 06.41288700 51 51.581+17 32 42.68         19.88GVET083I52
     K23T02M 1C2023 10 06.41302900 51 51.613+17 32 41.10         20.26GVET083G96
     K23T02M mC2023 10 06.41331100 51 51.746+17 32 37.72         19.95GVET083I52
     K23T02M mC2023 10 06.41373600 51 51.919+17 32 32.28         19.79GVET083I52
     K23T02M mC2023 10 06.46972600 52 16.831+17 21 28.08         20.07GVET083I52
     K23T02M mC2023 10 06.47017500 52 17.065+17 21 22.39         20.23GVET083I52
     K23T02M mC2023 10 06.47060800 52 17.267+17 21 17.50         20.11GVET083I52
     K23T02M mC2023 10 06.47103500 52 17.454+17 21 12.02         20.21GVET083I52
     K23T02M KB2023 10 06.96223800 56 20.56 +15 47 41.1          19.5 GVET083I93
     K23T02M KB2023 10 06.96557600 56 21.90 +15 47 04.3          20.4 GVET083I93
     K23T02M KB2023 10 06.96880400 56 23.21 +15 46 28.5          20.6 GVET083I93
     K23T02M KC2023 10 07.00124300 56 34.09 +15 40 24.3          20.1 GVET083L01
     K23T02M KC2023 10 07.00321600 56 34.89 +15 40 02.2          20.0 GVET083L01
     K23T02M KC2023 10 07.00519100 56 35.70 +15 39 39.8          20.1 GVET083L01
     K23T02M KC2023 10 07.00777400 56 36.74 +15 39 11.0          20.2 GVET083L01
     K23T02M KC2023 10 07.12544500 57 38.83 +15 17 36.7          20.5 VuET083H21
     K23T02M KC2023 10 07.12824100 57 39.95 +15 17 06.4          20.4 VuET083H21
     K23T02M KC2023 10 07.13103800 57 41.09 +15 16 36.1          20.5 VuET083H21
     K23T02M KC2023 10 07.13383500 57 42.24 +15 16 05.7          20.4 VuET083H21
Observer details:
F52 Pan-STARRS 2, Haleakala.  Observers J. Bulger, T. Lowe, P. Minguez, A.
    Schultz, I. Smith.  Measurers K. Chambers, T. de Boer, J. Bulger, J.
    Fairlamb, H. Gao, M. Huber, C.-C. Lin, T. Lowe, E. Magnier, P. Minguez, Y.
    Ramanjooloo, A. Schultz, I. Smith, R. Wainscoat, R. Weryk.  1.8-m Ritchey-
    Chretien + CCD.
G96 Mt. Lemmon Survey.  Observer K. W. Wierzchos.  Measurers E. C. Beshore, D.
    Fay, J. B. Fazekas, D. C. Fuls, A. R. Gibbs, A. D. Grauer, H. Groeller, J.
    K. Hogan, R. A. Kowalski, S. M. Larson, G. J. Leonard, D. Rankin, R. L.
    Seaman, F. C. Shelly, K. W. Wierzchos.  1.5-m reflector + 10K CCD.
H21 Astronomical Research Observatory, Westfield.  Observer R. Holmes.
    Measurers T. Linder, R. Holmes, L. Horn.  0.76-m f/3.0 astrograph + CCD.
I52 Steward Observatory, Mt. Lemmon Station.  Observer D. Rankin.  Measurers
    E. C. Beshore, D. Fay, J. B. Fazekas, D. C. Fuls, A. R. Gibbs, A. D.
    Grauer, H. Groeller, J. K. Hogan, R. A. Kowalski, S. M. Larson, G. J.
    Leonard, D. Rankin, R. L. Seaman, F. C. Shelly, K. W. Wierzchos.  1.0-m
    prime focus + CCD.
I93 St Pardon de Conques.  Observer F. Losse.  0.40-m f/3.7 reflector + CMO.
L01 Visnjan Observatory, Tican.  Observer K. Korlevic.  1.0-m f/2.9 reflector
    + CCD.
Orbital elements:
2023 TM2                                                 Earth MOID = 0.0400 AU
Epoch 2023 Sept. 13.0 TT = JDT 2460200.5                Bell                    
M  12.31740              (2000.0)            P               Q                  
n   0.68318086     Peri.  132.59104     +0.85311875     +0.52005978             
a   1.2767688      Node   196.21371     -0.51157003     +0.81824004             
e   0.2219441      Incl.    8.55734     -0.10239382     +0.24499198             
P   1.44           H   26.15          G   0.15           U   8                  
Residuals in seconds of arc
231006 F52  0.4+  0.0     231006 I52  0.1-  0.2+    231007 L01  0.1-  0.1+
231006 G96  0.5-  0.2+    231006 I52  0.3-  0.2-    231007 L01  0.0   0.1+
231006 G96  0.3-  0.1+    231006 I52  0.5-  0.3+    231007 L01  0.2+  0.2-
231006 F52  0.1+  0.3+    231006 I52  0.0   0.1-    231007 L01  0.2+  0.1-
231006 G96  0.2-  0.2-    231006 I52  0.1+  0.2+    231007 H21  0.2-  0.1-
231006 I52  0.0   0.1-    231006 I52  0.0   0.2-    231007 H21  0.3-  0.1-
231006 G96  0.0   0.3-    231006 I93  0.4+  0.3-    231007 H21  0.1-  0.0
231006 G96  0.1+  0.1-    231006 I93  0.3+  0.0     231007 H21  0.3+  0.0
231006 G96  0.3-  0.3+    231006 I93  0.5+  0.1+
Ephemeris:
2023 TM2                 a,e,i = 1.28, 0.22, 9                   q = 0.9934
Date    TT    R. A. (2000) Decl.     Delta      r    Elong.  Phase     V
2023 09 07    16 35 34.9 +50 14 06   0.08859 0.9982    81.2    93.8    24.2
...
2023 09 22    19 55 35.2 +59 44 31   0.04865 1.0170   104.2    73.2    22.2
...
2023 09 30    23 29 43.0 +41 59 46   0.04022 1.0322   138.7    39.8    20.8
...
2023 10 06    00 48 30.4 +18 55 25   0.04713 1.0457   165.9    13.5    20.4
2023 10 07    00 56 35.4 +15 42 15   0.04927 1.0482   169.3    10.2    20.4
2023 10 08    01 03 44.1 +12 44 28   0.05163 1.0506   172.3     7.4    20.4
...
2023 10 14    01 32 58.6 -00 13 05   0.06926 1.0661   170.7     8.7    21.1
...
2023 10 22    01 52 34.4 -08 56 02   0.09870 1.0888   160.2    18.0    22.2
...
2023 11 06    02 08 47.9 -14 06 12   0.1648  1.1359   149.1    26.7    23.7
M. P. C. Staff               (C) Copyright 2023 MPC           M.P.E.C. 2023-T83
    
    
More information about the Iaude
mailing list